Regional Weather Roundup
Issued by NWS Tiyan, Guam

Home | Current Version | Previous Version | Text Only | Print | Product List | Glossary On
Versions: 1 2 3 4 5 6 7 8 9 10 11 12 13 14 15 16 17 18 19 20 21 22 23 24 25 26 27
000
ASGM40 PGUM 232012
RWRGUM
WEATHER ROUNDUP FOR THE MARIANAS
NATIONAL WEATHER SERVICE TIYAN GU
600 AM GSST THU APR 24 2014

GUZ001>004-232100-
MARIANA ISLANDS-

CITY           SKY/WX    TMP DP  RH WIND       PRES   REMARKS
GUAM AIRPORT   PTCLDY    79  73  83 NE6       29.87R
ANDERSEN AFB   PTCLDY    79  72  78 NE12      29.87R
ROTA AIRPORT   PTCLDY    77  73  88 E9        29.88
TINIAN AP      PTCLDY    81  72  74 E6        29.86
SAIPAN AP      PTCLDY    79  72  78 E8        29.87R

$$




USA.gov is the U.S. government's official web portal to all federal, state and local government web resources and services.